Hourly Data Report for November 26, 2019

QUALICUM BEACH AIRPORT
BRITISH COLUMBIA
Current Station Operator: ECCC - MSC

49°20'14.000" N
124°23'38.000" W
58.20 m
1026562
71766
VOQ

Download Data

Hourly Data (November 2019)
Hourly Data Report for November 26, 2019
TIME
LST
Temp Definition
°C
Dew Point Definition
°C
Rel Hum Definition
%
Precip. Amount Definition
mm

Wind Dir Definition
10's deg

Wind Spd Definition
km/h
Visibility Definition
km
Stn Press Definition
kPa
Hmdx Definition


Wind Chill Definition


Weather Definition


00:00 0.0 -0.8 94 LegendMM 25 4   101.03   -1 LegendNANA
01:00 -0.3 -0.8 97 LegendMM 25 6   100.94   -2 LegendNANA
02:00 -0.4 -0.9 97 LegendMM 27 4   100.89   -2 LegendNANA
03:00 -0.5 -0.9 97 LegendMM 23 1   100.84   -1 LegendNANA
04:00 -0.1 -0.4 98 LegendMM 25 2   100.74   -1 LegendNANA
05:00 -0.8 -1.0 98 LegendMM 26 2   100.65   -1 LegendNANA
06:00 -1.1 -1.3 99 LegendMM 25 2   100.60   -2 LegendNANA
07:00 -1.4 -1.6 99 LegendMM 24 2   100.56   -2 LegendNANA
08:00 -0.7 -0.9 99 LegendMM 18 3   100.51   -2 LegendNANA
09:00 0.9 0.6 98 LegendMM 25 2   100.47     LegendNANA
10:00 0.8 0.4 97 LegendMM 22 3   100.46     LegendNANA
11:00 1.4 1.0 97 LegendMM 28 6   100.40     LegendNANA
12:00 1.9 1.5 97 LegendMM 30 12   100.32     LegendNANA
13:00 0.9 0.6 98 LegendMM 25 7   100.27     LegendNANA
14:00 1.4 1.0 97 LegendMM 25 6   100.22     LegendNANA
15:00 1.7 1.2 96 LegendMM 26 7   100.17     LegendNANA
16:00 1.7 1.2 96 LegendMM 26 6   100.12     LegendNANA
17:00 1.8 1.1 95 LegendMM 26 8   100.09     LegendNANA
18:00 1.2 0.5 95 LegendMM 27 6   100.06     LegendNANA
19:00 1.1 0.2 93 LegendMM 26 8   100.04     LegendNANA
20:00 0.3 -0.3 96 LegendMM 26 7   100.02     LegendNANA
21:00 0.2 -0.7 93 LegendMM 27 8   99.99     LegendNANA
22:00 0.1 -0.9 93 LegendMM 27 9   100.00     LegendNANA
23:00 0.1 -1.4 90 LegendMM 27 7   100.00     LegendNANA

Notes on Data Quality.

Legend

  • E = Estimated
  • M = Missing
  • NA = Not Available*
  • [empty] = Indicates an unobserved value
Date modified: